This demonstration page uses our WeatherBlox Daily Observations layout. Learn more.

Left ArrowRight Arrow

44.31136, -96.79839

Hourly Observations for August 25, 2022

Temp ( °F °C ) Dew Point ( °F °C ) Humidity (%) Winds ( mph kmh ) Pressure ( in mb ) Visibility ( mi km ) Precip ( " mm )
12:56 am 00:56 Clear 60 15.6 60 15.6 100 100 NNW 5 7 30.13 1020 10 16 0.00 0.00
1:56 am 01:56 Clear 59 15 59 15 100 100 Calm 30.13 1020 9 14 0.00 0.00
2:56 am 02:56 Clear 58 14.4 N/A N/A W 5 7 30.13 1020 8 13 0.00 0.00
3:39 am 03:39 Clear with Mist and Fog 57 14 N/A N/A Calm 30.09 1019 2 3 0.00 0.00
3:48 am 03:48 Clear with Mist and Fog 57 14 N/A N/A Calm 30.11 1020 3 5 0.00 0.00
3:56 am 03:56 Clear 57 13.9 N/A N/A WNW 3 6 30.13 1020 8 13 0.00 0.00
4:06 am 04:06 Partly Cloudy with Mist and Fog 57 14 N/A N/A NW 3 6 30.11 1020 3 4 0.00 0.00
4:16 am 04:16 Mostly Cloudy with Mist and Fog 57 14 N/A N/A NW 5 7 30.11 1020 1 2 0.00 0.00
4:23 am 04:23 Mostly Cloudy with Mist and Fog 57 14 N/A N/A WNW 7 11 30.11 1020 1 1 0.00 0.00
4:48 am 04:48 Partly Cloudy with Mist and Fog 57 14 N/A N/A NW 6 9 30.12 1020 1 2 0.00 0.00
4:53 am 04:53 Partly Cloudy with Mist and Fog 57 14 N/A N/A NW 6 9 30.12 1020 3 5 0.00 0.00
4:59 am 04:59 Mostly Clear with Mist and Fog 57 14 N/A N/A NW 5 7 30.12 1020 1 2 0.00 0.00
5:04 am 05:04 Mostly Clear with Fog 57 14 N/A N/A NW 5 7 30.11 1020 1 1 0.00 0.00
5:22 am 05:22 Mostly Clear with Mist and Fog 57 14 N/A N/A N 7 11 30.11 1020 1 2 0.00 0.00
5:28 am 05:28 Mostly Clear with Mist and Fog 57 14 N/A N/A N 7 11 30.11 1020 3 5 0.00 0.00
5:56 am 05:56 Clear 58 14.4 N/A N/A N 7 11 30.14 1021 10 16 0.00 0.00
6:56 am 06:56 Sunny 58 14.4 N/A N/A N 7 11 30.16 1021 7 11 0.00 0.00
7:56 am 07:56 Sunny 61 16.1 60 15.6 97 97 NNW 10 17 30.18 1022 10 16 0.00 0.00
8:36 am 08:36 Partly Cloudy 63 17 61 16 94 94 N 7 11 30.13 1020 10 16 0.00 0.00
8:48 am 08:48 Mostly Cloudy 63 17 61 16 94 94 N 7 11 30.13 1020 10 16 0.00 0.00
8:56 am 08:56 Cloudy 63 17.2 61 16.1 93 93 N 8 13 30.19 1023 10 16 0.00 0.00
9:04 am 09:04 Cloudy 63 17 63 17 100 100 N 6 9 30.14 1021 10 16 0.00 0.00
9:56 am 09:56 Cloudy 67 19.4 60 15.6 79 79 N 9 15 30.19 1022 10 16 0.00 0.00
10:12 am 10:12 Cloudy 70 21 61 16 73 73 N 8 13 30.11 1020 10 16 0.00 0.00
10:56 am 10:56 Mostly Cloudy 73 22.8 59 15 61 61 N 7 11 30.19 1023 10 16 0.00 0.00
11:08 am 11:08 Cloudy 72 22 61 16 69 69 N 8 13 30.12 1020 10 16 0.00 0.00
11:39 am 11:39 Partly Cloudy 72 22 59 15 65 65 NNE 9 15 30.12 1020 10 16 0.00 0.00
11:56 am 11:56 Mostly Cloudy 71 21.7 59 15 66 66 NNE 10 17 30.20 1023 10 16 0.00 0.00
12:56 pm 12:56 Mostly Cloudy 72 22.2 61 16.1 68 68 N 8 13 30.19 1022 10 16 0.00 0.00
1:42 pm 13:42 Partly Cloudy 73 23 63 17 69 69 NNE 8 13 30.09 1019 10 16 0.00 0.00
1:56 pm 13:56 Mostly Sunny 75 23.9 61 16.1 62 62 ENE 9 15 30.18 1022 10 16 0.00 0.00
2:56 pm 14:56 Mostly Sunny 75 23.9 60 15.6 60 60 NNE 8 13 30.17 1022 10 16 0.00 0.00
3:56 pm 15:56 Sunny 78 25.6 58 14.4 50 50 N 10 17 30.16 1021 10 16 0.00 0.00
4:56 pm 16:56 Sunny 74 23.3 56 13.3 53 53 NE 8 13 30.15 1021 10 16 0.00 0.00
5:56 pm 17:56 Sunny 76 24.4 58 14.4 54 54 NNE 7 11 30.16 1021 10 16 0.00 0.00
6:56 pm 18:56 Sunny 74 23.3 57 13.9 56 56 NE 8 13 30.16 1021 10 16 0.00 0.00
7:56 pm 19:56 Sunny 68 20 58 14.4 70 70 NE 5 7 30.16 1022 10 16 0.00 0.00
8:56 pm 20:56 Clear 66 18.9 57 13.9 73 73 Calm 30.18 1022 10 16 0.00 0.00
9:56 pm 21:56 Clear 60 15.6 59 15 96 96 Calm 30.19 1022 10 16 0.00 0.00
10:56 pm 22:56 Clear 58 14.4 58 14.4 100 100 Calm 30.18 1022 10 16 0.00 0.00
11:56 pm 23:56 Clear 55 12.8 55 12.8 100 100 Calm 30.19 1023 10 16 0.00 0.00

Powered by AerisWeather